This is the latest recevied weather packets stored in our database for station/object EA3HRE-10. If no packets are shown the sender has not sent any weather packets the latest 1 day(s).
| Time | Temp. | Humidity | Pressure | Rain* | Wind** | Luminosity | Snow |
|---|---|---|---|---|---|---|---|
| 1778061710 | 22.78° C | 39% | 1013.1 hPa | - | - | - | - |
| 1778057209 | 22.78° C | 47% | 1013.2 hPa | - | - | - | - |
| 1778056309 | 22.22° C | 47% | 1013.1 hPa | - | - | - | - |
| 1778055409 | 22.22° C | 48% | 1013.1 hPa | - | - | - | - |
| 1778054509 | 22.22° C | 48% | 1013 hPa | - | - | - | - |
| 1778053608 | 22.22° C | 48% | 1012.6 hPa | - | - | - | - |
| 1778051808 | 21.11° C | 50% | 1012.8 hPa | - | - | - | - |
| 1778050907 | 20.56° C | 51% | 1012.8 hPa | - | - | - | - |
| 1778050007 | 20.56° C | 54% | 1012.6 hPa | - | - | - | - |
| 1778049846 | 20° C | 53% | 1012.4 hPa | - | - | - | - |
| 1778045345 | 20.56° C | 54% | 1011.9 hPa | - | - | - | - |
| 1778044445 | 20.56° C | 53% | 1011.9 hPa | - | - | - | - |
| 1778043545 | 20.56° C | 54% | 1012 hPa | - | - | - | - |
| 1778042645 | 20.56° C | 53% | 1011.9 hPa | - | - | - | - |
| 1778041745 | 20.56° C | 53% | 1011.9 hPa | - | - | - | - |
| 1778038144 | 21.11° C | 52% | 1011.8 hPa | - | - | - | - |
| 1778037244 | 21.11° C | 52% | 1011.6 hPa | - | - | - | - |
| 1778036344 | 21.11° C | 52% | 1011.4 hPa | - | - | - | - |
| 1778035444 | 21.11° C | 52% | 1011.4 hPa | - | - | - | - |
| 1778034544 | 21.11° C | 52% | 1011.3 hPa | - | - | - | - |
| 1778030043 | 21.67° C | 52% | 1011.1 hPa | - | - | - | - |
* Rain since midnight (hover to see other rain measurements)
** Current wind speed in m/s (hover to see current wind gust speed)